QARMAN

Last updated on Sun Feb 06 2022 00:02:05 GMT+0000 (Coordinated Universal Time)

1 45263U 98067RG 22036.53229310 .15337201 12572-4 33864-3 0 9998 2 45263 51.6115 206.9643 0005832 268.7113 91.3248 16.46296888112040

Satellite not in orbit

QARMAN